Regional Weather Roundup
Issued by NWS

Home | Current Version | Previous Version | Text Only | Print | Product List | Glossary On
Versions: 1 2 3 4 5 6 7 8 9 10 11 12 13 14 15 16 17 18 19 20 21 22 23 24 25 26 27 28 29 30 31 32 33 34 35 36 37 38 39 40 41 42 43 44 45 46 47 48 49 50
000
ASUS45 KREV 241610
RWRNV
NEVADA REGIONAL WEATHER ROUNDUP
NATIONAL WEATHER SERVICE RENO NV
900 AM PDT MON JUL 24 2017

NOTE: "FAIR" INDICATES FEW OR NO CLOUDS BELOW 12,000 FEET WITH NO
SIGNIFICANT WEATHER AND/OR OBSTRUCTIONS TO VISIBILITY.

NVZ001-003-004-241700-
WESTERN NEVADA

CITY           SKY/WX    TMP DP  RH WIND       PRES   REMARKS
RENO           MOSUNNY   78  47  33 CALM      30.03F
CARSON CITY    FAIR      75  50  41 S3        30.06S
MINDEN         FAIR      73  54  49 CALM      30.06S
FALLON         PTSUNNY   82  53  36 W3        29.98F
LOVELOCK       MOSUNNY   85  48  27 CALM      29.99R
HAWTHORNE      SUNNY     86  46  25 VRB6      30.00F
$$

NVZ002-CAZ072-073-241700-
NORTHERN AND CENTRAL SIERRA

CITY           SKY/WX    TMP DP  RH WIND       PRES   REMARKS
S. LAKE TAHOE  MOSUNNY   67  55  65 CALM      30.16R
TRUCKEE        PTSUNNY   63  48  59 CALM      30.16S
SQUAW VLY 8000   N/A     63  41  45 S5          N/A
SUSANVILLE     SUNNY     72  41  33 CALM      30.03S
MAMMOTH LAKES  FAIR      72  49  43 SE3       30.24S
BRIDGEPORT     FAIR      73  42  32 CALM      30.18S
$$

NVZ030-031-036-241700-
NORTHERN NEVADA

CITY           SKY/WX    TMP DP  RH WIND       PRES   REMARKS
ELKO           MOSUNNY   80  43  26 CALM      30.09F
WINNEMUCCA     PTSUNNY   83  45  26 CALM      30.01F
WENDOVER       SUNNY     84  46  26 E9        30.02S
$$

NVZ035-037-241700-
CENTRAL NEVADA

CITY           SKY/WX    TMP DP  RH WIND       PRES   REMARKS
ELY              N/A    N/A N/A N/A MISG      30.20F
EUREKA           N/A     78  45  30 CALM      30.15F
$$

NVZ013-014-241700-
SOUTH CENTRAL NEVADA

CITY           SKY/WX    TMP DP  RH WIND       PRES   REMARKS
TONOPAH        MOSUNNY   78  50  37 S5        30.13S
$$

NVZ017-020-022-241700-
SOUTHERN NEVADA

CITY           SKY/WX    TMP DP  RH WIND       PRES   REMARKS
LAS VEGAS      PTSUNNY   90  62  39 S6        29.91F
N. LAS VEGAS   MOSUNNY   89  61  38 SE12      29.91R
NELLIS AFB     MOSUNNY   88  63  43 SE8       29.90S
HENDERSON      MOSUNNY   89  63  41 S13       29.95S
MERCURY        MOSUNNY   89  57  33 N5        29.96S
$$



USA.gov is the U.S. government's official web portal to all federal, state and local government web resources and services.